Home > Weather > Cumaná > Past weeks

Flag for Venezuela Past Weather in Cumaná, Venezuela — Yesterday and Last 2 Weeks

Now
79 °F

Passing clouds.


Feels Like: 82 °F
Forecast: 82 / 93 °F
Wind: N/A

Location: Margarita / Del Carib

Current Time: May 24, 2016 at 4:00:11 AM

Latest Report: May 24, 2016 at 3:00 AM


Visibility: N/A

Pressure: 29.92 "Hg

Humidity: 89%

Dew Point: 75 °F

Location of CumanáLocation

Past Weather in Cumaná — Graph

°F

Cumaná Temperature Yesterday

Maximum temperature yesterday: 93 °F (at 2:00 PM)
Minimum temperature yesterday: 79 °F (at 2:00 AM)
Average temperature yesterday: 84 °F

High & Low Weather Summary for the Past Weeks

 TemperatureHumidityPressure
High97 °F (May 21, 1:00 PM)94% (May 9, 2:00 AM)30.01 "Hg (May 9, 2:00 AM)
Low77 °F (May 13, 6:00 AM)37% (May 21, 1:00 PM)29.83 "Hg (May 9, 4:00 AM)
Average84 °F75%29.90 "Hg
* Reported May 9 2:00 AM — May 24 2:00 AM, Cumaná, Weather by CustomWeather, © 2016

Note: Actual official high and low records may vary slightly from our data, if they occured in-between our weather recording intervals... More about our weather records

Advertising

Cumaná Weather History for the Previous 24 Hours

Scroll right to see more
 ConditionsComfort  
Time TempWeatherWind HumidityBarometerVisibility
2:00 AM
Tue, May 24
79 °FPassing clouds.N/A94%29.95 "HgN/A
1:00 AM79 °FPassing clouds.N/A94%29.95 "HgN/A
12:00 AM81 °FPassing clouds.N/A84%29.92 "HgN/A
10:00 PM
Mon, May 23
81 °FPassing clouds.N/A84%29.89 "HgN/A
9:00 PM81 °FPassing clouds.N/A84%29.89 "HgN/A
8:00 PM82 °FPassing clouds.N/A79%29.89 "HgN/A
7:00 PM82 °FPassing clouds.N/A79%29.89 "HgN/A
6:00 PM86 °FScattered clouds.N/A66%29.89 "HgN/A
4:00 PM91 °FScattered clouds.N/A56%29.92 "HgN/A
3:00 PM93 °FPassing clouds.N/A53%29.92 "HgN/A
2:00 PM93 °FPassing clouds.N/A53%29.92 "HgN/A
1:00 PM91 °FPassing clouds.N/A59%29.95 "HgN/A
12:00 PM90 °FPassing clouds.N/A63%29.95 "HgN/A
11:00 AM88 °FPassing clouds.N/A66%29.95 "HgN/A
10:00 AM86 °FPassing clouds.N/A70%29.92 "HgN/A
9:00 AM84 °FPassing clouds.N/A74%29.92 "HgN/A
8:00 AM84 °FPassing clouds.N/A74%29.92 "HgN/A
7:00 AM81 °FPassing clouds.N/A84%29.92 "HgN/A
6:00 AM79 °FPassing clouds.N/A94%29.89 "HgN/A
5:00 AM79 °FPassing clouds.N/A89%29.89 "HgN/A
4:00 AM79 °FPassing clouds.N/A89%29.89 "HgN/A
Weather by CustomWeather, © 2016

See weather overviewHow to use our weather pages